Regional Weather Roundup
Issued by NWS

Home | Current Version | Previous Version | Text Only | Print | Product List | Glossary Off
Versions: 1 2 3 4 5 6 7 8 9 10 11 12 13 14 15 16 17 18 19 20 21 22 23 24 25 26 27 28 29 30 31 32 33 34 35 36 37 38 39 40 41 42 43 44 45 46 47 48 49 50

822
ASUS45 KSLC 212210
RWRUT

UTAH REGIONAL WEATHER ROUNDUP
NATIONAL WEATHER SERVICE SALT LAKE CITY UT
400 PM MDT SAT APR 21 2018

UTZ001>011-023>025-212300-

NORTHERN UTAH

CITY           SKY/WX    TMP DP  RH WIND       PRES   REMARKS
BRIGHAM CITY   SUNNY     66  21  18 S6        30.16F
HILL AFB       SUNNY     64  24  22 W5        30.18S
LOGAN          SUNNY     71  31  22 CALM      30.14F
OGDEN          SUNNY     65  20  17 SW7       30.16F
SALT LAKE CITY MOSUNNY   68  24  19 N8        30.16F
TOOELE VALLEY  SUNNY     64  30  27 N6        30.18S
WENDOVER       SUNNY     71  22  15 E8        30.15F
HEBER CITY       N/A     68  28  22 SW7       30.14S
WEST JORDAN    SUNNY     64  31  28 NW14      30.18S

$$

UTZ011>015-024>027-212300-

CENTRAL/NORTHEAST UTAH

CITY           SKY/WX    TMP DP  RH WIND       PRES   REMARKS
PROVO AIRPORT  SUNNY     67  33  28 VRB6      30.16F
MOAB/CANYONLAN SUNNY     68  33  27 SE8       30.08F
DELTA          SUNNY     64  27  24 N3        30.18F
PRICE          SUNNY     69  25  19 NW9       30.11F
RICHFIELD      SUNNY     66  32  28 E5G13     30.16F
ROOSEVELT      SUNNY     63  36  36 NE8       30.13F
VERNAL         SUNNY     61  38  42 VRB3      30.11F

$$

UTZ013>016-019>022-027-212300-

SOUTHERN UTAH

CITY           SKY/WX    TMP DP  RH WIND       PRES   REMARKS
BRYCE CANYON   SUNNY     61  23  23 W14G21    30.23S
CEDAR CITY     SUNNY     66  19  16 N12       30.18F
MILFORD        SUNNY     66  31  27 NE12G20   30.18F
ST GEORGE      CLEAR     79  28  15 NW5       30.04F
HANKSVILLE     SUNNY     72  28  20 S5        30.11F
KANAB          SUNNY     73  19  13 S12G20    30.13F
BLANDING         N/A     68  28  22 N7G17     30.19F

$$

REGIONAL REPORTS     COLORADO/ARIZONA

CITY           SKY/WX    TMP DP  RH WIND       PRES   REMARKS
CRAIG, CO      MOSUNNY   52  35  52 S3        30.17F
GRAND JUNCTION MOSUNNY   61  35  37 MISG      30.14F
RIFLE, CO      CLOUDY    51  37  58 CALM      30.19F
MONTROSE, CO   PTSUNNY   54  33  45 CALM      30.21S
CORTEZ, CO     SUNNY     64  28  25 N20G30    30.12R
COLORADO CITY    N/A     73  21  14 NW15      30.16F
PAGE, AZ       SUNNY     73  27  18 SE8       30.08F
GRAND CANYON   SUNNY     66  24  20 N12       30.20F
KINGMAN, AZ    SUNNY     81  23  11 N10       30.07F
FLAGSTAFF, AZ  SUNNY     65  23  20 E8        30.20S

$$

REGIONAL REPORTS    NEVADA/IDAHO/WYOMING

CITY           SKY/WX    TMP DP  RH WIND       PRES   REMARKS
LAS VEGAS, NV  MOSUNNY   83  26  12 NE5       30.03F
ELY, NY        SUNNY     65  16  15 VRB6      30.20F
ELKO, NV       SUNNY     69  31  24 W8        30.18F
POCATELLO, ID  MOSUNNY   70  33  25 W16G28    30.11F
BURLEY, ID     SUNNY     68  31  25 W16G28    30.12F
FORT BRIDGER,    N/A     65  18  16 NW20G28   30.19F
EVANSTON, WY   SUNNY     60  21  22 NW13G24   30.19F
ROCK SPRINGS,  SUNNY     64  16  15 W12G22    30.11F
KEMMERER, WY   SUNNY     59  21  23 NW13G32   30.18S

$$




USA.gov is the U.S. government's official web portal to all federal, state and local government web resources and services.